Location: ????????
(55.3939°N, 37.4780°E)
Time: 21:29:01
(UTC+00:00)

CZ-2C R/B - Pass Details

Date: 14 April 2026
Orbit: 702 x 901 km, 98.2° (Epoch: 11 May)

Event Time Altitude Azimuth Distance (km) Brightness Sun altitude
Rises 21:29:17 0° 17° (NNE) 3,185 7.4 -24.9°
Reaches altitude 10° 21:31:33 10° 20° (NNE) 2,282 6.4 -24.9°
Maximum altitude 21:36:33 66° 103° (ESE) 850 3.1 -24.9°
Enters shadow 21:36:56 64° 129° (SE) 866 3.0 -24.9°
